Change the Weather History Date:

Thursday, October 3, 2013

  Actual Average (KALS) Record (KALS)
Temperature  
Mean Temperature 36 °F 48 °F  
Max Temperature 41 °F 67 °F 78 °F (1979)
Min Temperature 30 °F 29 °F 16 °F (1961)
Degree Days  
Heating Degree Days 30 17  
Month to date heating degree days 49  
Since 1 July heating degree days 480  
Cooling Degree Days 0 0  
Month to date cooling degree days 0  
Year to date cooling degree days 51  
Moisture  
Dew Point 22 °F    
Average Humidity 59    
Maximum Humidity 81    
Minimum Humidity 41    
Precipitation  
Precipitation 0.00 in 0.02 in 0.81 in (1959)
Month to date precipitation 0.07  
Year to date precipitation 5.93  
Snow  
Snow 0.00 in 0.10 in 6.40 in (1959)
Month to date snowfall 0.1  
Since 1 July snowfall 0.1  
Since 1 September snowfall 0.1  
Snow Depth -    
Sea Level Pressure  
Sea Level Pressure 30.18 in    
Wind  
Wind Speed 25 mph (SW)    
Max Wind Speed 31 mph    
Max Gust Speed 48 mph    
Visibility 10 miles    
Events      
T = Trace of Precipitation, MM = Missing Value Source: NWS Daily Summary

Daily Weather History Graph

Daily Weather History Graph

Search for Another Location

Airport or City:

Trip Planner

Search our weather history database for the weather conditions in past years. The results will help you decide how hot, cold, wet, or windy it might be!

Date:

Astronomy

Oct. 03, 2013 Rise Set
Actual Time 7:04 AM MDT 6:46 PM MDT
Civil Twilight 6:38 AM MDT 7:12 PM MDT
Nautical Twilight 6:08 AM MDT 7:43 PM MDT
Astronomical Twilight 5:37 AM MDT 8:13 PM MDT
Moon 5:42 AM MDT (10/3) 5:56 PM MDT (10/3)
Length of Visible Light 12h 34m
Length of Day
11h 42m
Waning Crescent, 2% of the Moon is Illuminated
Oct 3
Waning Crescent
Oct 4
New
Oct 11
First Quarter
Oct 18
Full
Oct 26
Last Quarter

Hourly Weather History & Observations

Time (MDT) Temp. Windchill Dew Point Humidity Pressure Visibility Wind Dir Wind Speed Gust Speed Precip Events Conditions
12:04 AM 35.6 °F 22.5 °F 14.0 °F 41% 30.31 in 10.0 mi WSW 29.9 mph 40.3 mph N/A   Clear
12:24 AM 35.6 °F 23.0 °F 14.0 °F 41% 30.29 in 10.0 mi SW 27.6 mph 38.0 mph N/A   Clear
12:44 AM 35.6 °F 22.3 °F 15.8 °F 44% 30.29 in 10.0 mi SW 31.1 mph 38.0 mph N/A   Clear
1:04 AM 35.6 °F 22.3 °F 15.8 °F 44% 30.29 in 10.0 mi SW 31.1 mph 36.8 mph N/A   Clear
1:24 AM 35.6 °F 23.0 °F 15.8 °F 44% 30.29 in 10.0 mi SW 27.6 mph 41.4 mph N/A   Clear
1:44 AM 35.6 °F 22.7 °F 17.6 °F 48% 30.28 in 10.0 mi SW 28.8 mph 36.8 mph N/A   Clear
2:04 AM 35.6 °F 22.5 °F 17.6 °F 48% 30.28 in 10.0 mi SW 29.9 mph 36.8 mph N/A   Clear
2:24 AM 35.6 °F 22.5 °F 15.8 °F 44% 30.27 in 10.0 mi WSW 29.9 mph 35.7 mph N/A   Clear
2:44 AM 35.6 °F 22.7 °F 15.8 °F 44% 30.27 in 10.0 mi SW 28.8 mph 35.7 mph N/A   Clear
3:04 AM 35.6 °F 22.3 °F 15.8 °F 44% 30.26 in 10.0 mi SW 31.1 mph 35.7 mph N/A   Clear
3:24 AM 33.8 °F 20.5 °F 15.8 °F 48% 30.26 in 10.0 mi SW 27.6 mph 33.4 mph N/A   Clear
3:44 AM 33.8 °F 21.3 °F 14.0 °F 44% 30.26 in 10.0 mi SW 24.2 mph 31.1 mph N/A   Clear
4:04 AM 33.8 °F 21.9 °F 14.0 °F 44% 30.25 in 10.0 mi SW 21.9 mph 29.9 mph N/A   Clear
4:24 AM 33.8 °F 21.6 °F 14.0 °F 44% 30.25 in 10.0 mi SW 23.0 mph - N/A   Clear
4:44 AM 33.8 °F 21.9 °F 14.0 °F 44% 30.24 in 10.0 mi SW 21.9 mph 31.1 mph N/A   Clear
5:04 AM 33.8 °F 21.9 °F 15.8 °F 48% 30.24 in 10.0 mi SW 21.9 mph 28.8 mph N/A   Clear
5:24 AM 33.8 °F 21.6 °F 15.8 °F 48% 30.24 in 10.0 mi SW 23.0 mph 33.4 mph N/A   Clear
5:44 AM 32.0 °F 18.6 °F 14.0 °F 48% 30.24 in 10.0 mi SW 25.3 mph 31.1 mph N/A   Clear
6:04 AM 32.0 °F 19.8 °F 15.8 °F 51% 30.24 in 10.0 mi SW 20.7 mph 29.9 mph N/A   Clear
6:24 AM 32.0 °F 19.5 °F 15.8 °F 51% 30.24 in 10.0 mi SW 21.9 mph 29.9 mph N/A   Clear
6:44 AM 32.0 °F 19.5 °F 17.6 °F 55% 30.23 in 10.0 mi SW 21.9 mph 31.1 mph N/A   Clear
7:04 AM 30.2 °F 17.8 °F 17.6 °F 60% 30.22 in 10.0 mi SW 19.6 mph 27.6 mph N/A   Clear
7:24 AM 30.2 °F 17.4 °F 17.6 °F 60% 30.22 in 10.0 mi SW 20.7 mph 28.8 mph N/A   Clear
7:44 AM 32.0 °F 19.8 °F 19.4 °F 60% 30.22 in 10.0 mi SW 20.7 mph 28.8 mph N/A   Clear
8:04 AM 32.0 °F 20.1 °F 21.2 °F 64% 30.22 in 10.0 mi SW 19.6 mph 27.6 mph N/A   Clear
8:24 AM 32.0 °F 20.1 °F 23.0 °F 69% 30.22 in 10.0 mi SW 19.6 mph 28.8 mph N/A   Clear
8:44 AM 32.0 °F 19.8 °F 24.8 °F 75% 30.23 in 10.0 mi SSW 20.7 mph 29.9 mph N/A   Clear
9:04 AM 33.8 °F 22.5 °F 26.6 °F 75% 30.23 in 10.0 mi SSW 19.6 mph 28.8 mph N/A   Clear
9:24 AM 33.8 °F 21.6 °F 26.6 °F 75% 30.22 in 10.0 mi SW 23.0 mph 31.1 mph N/A   Clear
9:44 AM 33.8 °F 22.5 °F 26.6 °F 75% 30.22 in 10.0 mi SSW 19.6 mph 33.4 mph N/A   Clear
10:04 AM 33.8 °F 22.2 °F 28.4 °F 81% 30.22 in 10.0 mi SSW 20.7 mph 31.1 mph N/A   Clear
10:24 AM 35.6 °F 24.8 °F 28.4 °F 75% 30.22 in 10.0 mi SW 19.6 mph 29.9 mph N/A   Clear
10:44 AM 35.6 °F 24.5 °F 28.4 °F 75% 30.22 in 10.0 mi SSW 20.7 mph 34.5 mph N/A   Clear
11:04 AM 35.6 °F 23.7 °F 28.4 °F 75% 30.22 in 10.0 mi SSW 24.2 mph 34.5 mph N/A   Clear
11:24 AM 35.6 °F 24.5 °F 28.4 °F 75% 30.21 in 10.0 mi SW 20.7 mph 32.2 mph N/A   Scattered Clouds
11:44 AM 35.6 °F 24.2 °F 28.4 °F 75% 30.20 in 10.0 mi SSW 21.9 mph 40.3 mph N/A   Scattered Clouds
12:04 PM 37.4 °F 25.4 °F 28.4 °F 70% 30.19 in 10.0 mi SW 27.6 mph 38.0 mph N/A   Scattered Clouds
12:24 PM 37.4 °F 26.6 °F 28.4 °F 70% 30.19 in 10.0 mi SW 21.9 mph 38.0 mph N/A   Scattered Clouds
12:44 PM 37.4 °F 26.1 °F 26.6 °F 65% 30.19 in 10.0 mi SW 24.2 mph 38.0 mph N/A   Scattered Clouds
1:04 PM 37.4 °F 26.6 °F 26.6 °F 65% 30.19 in 10.0 mi SW 21.9 mph 40.3 mph N/A   Clear
1:24 PM 37.4 °F 30.3 °F 26.6 °F 65% 30.19 in 10.0 mi SSW 10.4 mph 35.7 mph N/A   Scattered Clouds
1:44 PM 37.4 °F 26.6 °F 26.6 °F 65% 30.17 in 10.0 mi SSW 21.9 mph 34.5 mph N/A   Scattered Clouds
2:04 PM 37.4 °F 26.4 °F 26.6 °F 65% 30.15 in 10.0 mi SSW 23.0 mph 39.1 mph N/A   Scattered Clouds
2:24 PM 37.4 °F 26.9 °F 26.6 °F 65% 30.15 in 10.0 mi SW 20.7 mph 33.4 mph N/A   Scattered Clouds
2:44 PM 39.2 °F 27.4 °F 28.4 °F 65% 30.14 in 10.0 mi SSW 29.9 mph 41.4 mph N/A   Scattered Clouds
3:04 PM 39.2 °F 30.2 °F 26.6 °F 61% 30.13 in 10.0 mi SSW 17.3 mph 41.4 mph N/A   Scattered Clouds
3:24 PM 39.2 °F 29.8 °F 23.0 °F 52% 30.13 in 10.0 mi SSW 18.4 mph 44.9 mph N/A   Mostly Cloudy
3:44 PM 37.4 °F 26.1 °F 23.0 °F 56% 30.13 in 10.0 mi SSW 24.2 mph 43.7 mph N/A   Scattered Clouds
4:04 PM 39.2 °F 28.5 °F 23.0 °F 52% 30.12 in 10.0 mi SW 24.2 mph 48.3 mph N/A   Scattered Clouds
4:24 PM 37.4 °F 26.4 °F 24.8 °F 60% 30.12 in 10.0 mi SSW 23.0 mph 39.1 mph N/A   Mostly Cloudy
4:44 PM 41.0 °F 30.0 °F 23.0 °F 49% 30.12 in 10.0 mi SW 28.8 mph 44.9 mph N/A   Scattered Clouds
5:04 PM 41.0 °F 32.5 °F 24.8 °F 53% 30.11 in 10.0 mi SSW 17.3 mph 38.0 mph N/A   Scattered Clouds
5:24 PM 37.4 °F 27.2 °F 23.0 °F 56% 30.11 in 10.0 mi SSW 19.6 mph 42.6 mph N/A   Scattered Clouds
5:44 PM 37.4 °F 25.6 °F 23.0 °F 56% 30.10 in 10.0 mi SW 26.5 mph 41.4 mph N/A   Scattered Clouds
6:04 PM 37.4 °F 25.9 °F 23.0 °F 56% 30.10 in 10.0 mi SW 25.3 mph 43.7 mph N/A   Clear
6:24 PM 35.6 °F 25.5 °F 23.0 °F 60% 30.12 in 10.0 mi SW 17.3 mph 41.4 mph N/A   Scattered Clouds
6:44 PM 35.6 °F 22.7 °F 23.0 °F 60% 30.10 in 10.0 mi SW 28.8 mph 41.4 mph N/A   Mostly Cloudy
7:04 PM 33.8 °F 23.2 °F 24.8 °F 70% 30.10 in 10.0 mi SW 17.3 mph 32.2 mph N/A   Mostly Cloudy
7:24 PM 33.8 °F 21.9 °F 26.6 °F 75% 30.10 in 10.0 mi SW 21.9 mph 33.4 mph N/A   Scattered Clouds
7:44 PM 33.8 °F 22.8 °F 26.6 °F 75% 30.10 in 10.0 mi SW 18.4 mph 31.1 mph N/A   Mostly Cloudy
8:04 PM 33.8 °F 25.3 °F 24.8 °F 70% 30.09 in 10.0 mi SW 11.5 mph 28.8 mph N/A   Overcast
8:24 PM 35.6 °F 25.5 °F 23.0 °F 60% 30.10 in 10.0 mi SSW 17.3 mph 31.1 mph N/A   Overcast
8:44 PM 35.6 °F 25.5 °F 23.0 °F 60% 30.10 in 10.0 mi SSW 17.3 mph 27.6 mph N/A   Overcast
9:04 PM 35.6 °F 24.0 °F 23.0 °F 60% 30.09 in 10.0 mi SSW 23.0 mph 40.3 mph N/A   Overcast
9:24 PM 35.6 °F 24.2 °F 21.2 °F 56% 30.09 in 10.0 mi SSW 21.9 mph 36.8 mph N/A   Overcast
9:44 PM 35.6 °F 25.2 °F 21.2 °F 56% 30.08 in 10.0 mi SSW 18.4 mph 38.0 mph N/A   Overcast
10:44 PM 33.8 °F 20.8 °F 21.2 °F 60% 30.07 in 10.0 mi SW 26.5 mph 40.3 mph N/A   Overcast
11:04 PM 33.8 °F 23.9 °F 19.4 °F 56% 30.07 in 10.0 mi SSW 15.0 mph 40.3 mph N/A   Overcast
11:24 PM 33.8 °F 22.2 °F 19.4 °F 56% 30.06 in 10.0 mi SSW 20.7 mph 34.5 mph N/A   Overcast
11:44 PM 33.8 °F 21.6 °F 19.4 °F 56% 30.05 in 10.0 mi SW 23.0 mph 40.3 mph N/A   Overcast